カタログに戻る

SL-14 DEB

運用中PO
NORAD 19234·DEBRIS·🇷🇺 Russia

打ち上げ Oct 26, 1978 から Plesetsk Cosmodrome

Loading…

次のパス (今後24時間)

TLE

最新Source: Space-Track

元期: Sep 14, 2026, 02:41 UTC

1 19234U 78100AD  26257.11245424  .00000829  00000-0  12541-1 0  9993
2 19234  82.4253 134.5702 0143935 233.4569 282.0466 11.80582543649390

AllMySatでSL-14 DEBをリアルタイム追跡

Download on the App Store